Location: Krakow
(50.0830°N, 19.9170°E)
Time: 11:51:48
(UTC+01:00)

Transit 2A Rocket - Visible Passes

Search period start: 15 March 2026 00:00
Search period end: 25 March 2026 00:00
Orbit: 583 x 900 km, 66.7° (Epoch: 14 March)

Date Brightness Start Highest point End Pass type
(mag) Time Alt. Az. Time Alt. Az. Time Alt. Az.
15 Mar 7.7 19:43:45 10° WNW 19:45:53 13° WSW 19:47:58 10° SW visible
16 Mar 7.3 18:56:46 10° WNW 19:00:43 23° WSW 19:04:24 10° SSW visible
18 Mar 8.2 19:10:22 10° W 19:11:06 10° W 19:11:49 10° WSW visible
19 Mar 7.6 18:22:25 10° WNW 18:25:57 19° WSW 18:29:16 10° SSW visible
